Weather History for Newcastle, WY

Change the Weather History Date:

Sunday, March 30, 2014

  Actual Average (KCUT) Record (KCUT)
Temperature  
Mean Temperature 45 °F 34 °F  
Max Temperature 57 °F 45 °F 70 °F (1967)
Min Temperature 33 °F 24 °F 2 °F (1944)
Degree Days  
Heating Degree Days 20 30  
Month to date heating degree days 1009  
Since 1 July heating degree days 6844  
Cooling Degree Days 0 0  
Month to date cooling degree days 0  
Year to date cooling degree days 0  
Moisture  
Dew Point 31 °F    
Average Humidity 63    
Maximum Humidity 93    
Minimum Humidity 33    
Precipitation  
Precipitation 0.02 in 0.05 in 0.29 in (1993)
Month to date precipitation 0.97  
Year to date precipitation 1.83  
Sea Level Pressure  
Sea Level Pressure 29.66 in    
Wind  
Wind Speed 9 mph (SE)    
Max Wind Speed 21 mph    
Max Gust Speed 26 mph    
Visibility 10 miles    
Events Rain    
T = Trace of Precipitation, MM = Missing Value Source: NWS Daily Summary

Daily Weather History Graph

Daily Weather History Graph

Search for Another Location

Airport:

Trip Planner

Search our weather history database for the weather conditions in past years. The results will help you decide how hot, cold, wet, or windy it might be!

Date:

Astronomy

Mar. 30, 2014 Rise Set
Actual Time 6:42 AM MDT 7:21 PM MDT
Civil Twilight 6:13 AM MDT 7:50 PM MDT
Nautical Twilight 5:38 AM MDT 8:25 PM MDT
Astronomical Twilight 5:03 AM MDT 9:01 PM MDT
Moon 6:29 AM MDT (3/30) 7:38 PM MDT (3/30)
Length of Visible Light 13h 37m
Length of Day
12h 39m
Waning Crescent, 0% of the Moon is Illuminated
Mar 30
Waning Crescent
Mar 30
New
Apr 7
First Quarter
Apr 15
Full
Apr 22
Last Quarter

Hourly Weather History & Observations

Time (MDT) Temp. Windchill Dew Point Humidity Pressure Visibility Wind Dir Wind Speed Gust Speed Precip Events Conditions
12:15 AM 44.6 °F 38.1 °F 30.2 °F 57% 29.79 in 10.0 mi NNE 13.8 mph - N/A   Clear
12:35 AM 46.4 °F 40.4 °F 30.2 °F 53% 29.80 in 10.0 mi NNE 13.8 mph 19.6 mph N/A   Clear
12:55 AM 44.6 °F 41.4 °F 30.2 °F 57% 29.80 in 10.0 mi SE 5.8 mph - N/A   Clear
1:15 AM 42.8 °F 39.3 °F 30.2 °F 61% 29.80 in 10.0 mi SW 5.8 mph - N/A   Clear
1:35 AM 39.2 °F - 30.2 °F 70% 29.81 in 10.0 mi Calm Calm - N/A   Clear
1:55 AM 37.4 °F - 30.2 °F 75% 29.82 in 10.0 mi Calm Calm - N/A   Clear
2:15 AM 35.6 °F 31.7 °F 30.2 °F 81% 29.82 in 10.0 mi North 4.6 mph - N/A   Clear
2:35 AM 37.4 °F 32.8 °F 30.2 °F 75% 29.82 in 10.0 mi NNW 5.8 mph - N/A   Clear
2:55 AM 35.6 °F 29.2 °F 30.2 °F 81% 29.82 in 10.0 mi North 8.1 mph - N/A   Clear
3:15 AM 37.4 °F 32.1 °F 30.2 °F 75% 29.81 in 10.0 mi North 6.9 mph - N/A   Clear
3:35 AM 37.4 °F 33.8 °F 30.2 °F 75% 29.80 in 10.0 mi North 4.6 mph - N/A   Clear
3:55 AM 35.6 °F - 30.2 °F 81% 29.79 in 10.0 mi Calm Calm - N/A   Clear
4:15 AM 33.8 °F 27.7 °F 30.2 °F 87% 29.78 in 10.0 mi NE 6.9 mph - N/A   Clear
4:35 AM 35.6 °F - 30.2 °F 81% 29.78 in 10.0 mi Calm Calm - N/A   Clear
4:55 AM 33.8 °F - 30.2 °F 87% 29.78 in 10.0 mi Calm Calm - N/A   Clear
5:15 AM 33.8 °F - 28.4 °F 81% 29.79 in 10.0 mi Calm Calm - N/A   Clear
5:35 AM 33.8 °F 29.6 °F 30.2 °F 87% 29.79 in 10.0 mi East 4.6 mph - N/A   Clear
5:55 AM 33.8 °F 27.0 °F 30.2 °F 87% 29.78 in 10.0 mi SE 8.1 mph - N/A   Clear
6:15 AM 37.4 °F 30.8 °F 30.2 °F 75% 29.78 in 10.0 mi SE 9.2 mph - N/A   Clear
6:35 AM 39.2 °F 32.5 °F 30.2 °F 70% 29.78 in 10.0 mi SE 10.4 mph - N/A   Clear
6:55 AM 37.4 °F 31.4 °F 30.2 °F 75% 29.78 in 10.0 mi SSE 8.1 mph - N/A   Clear
7:15 AM 37.4 °F 30.3 °F 30.2 °F 75% 29.78 in 10.0 mi SE 10.4 mph - N/A   Clear
7:35 AM 37.4 °F 30.8 °F 30.2 °F 75% 29.78 in 10.0 mi SE 9.2 mph - N/A   Clear
7:55 AM 37.4 °F 32.1 °F 30.2 °F 75% 29.77 in 10.0 mi SE 6.9 mph - N/A   Clear
8:15 AM 37.4 °F 32.1 °F 30.2 °F 75% 29.77 in 10.0 mi SSE 6.9 mph - N/A   Clear
8:35 AM 37.4 °F 32.1 °F 30.2 °F 75% 29.75 in 10.0 mi SSE 6.9 mph - N/A   Clear
8:55 AM 37.4 °F 31.4 °F 32.0 °F 81% 29.75 in 10.0 mi South 8.1 mph - N/A   Clear
9:15 AM 37.4 °F 32.1 °F 32.0 °F 81% 29.75 in 10.0 mi SSE 6.9 mph - N/A   Clear
9:35 AM 37.4 °F 32.1 °F 32.0 °F 81% 29.74 in 10.0 mi SSE 6.9 mph - N/A   Clear
9:55 AM 37.4 °F 32.8 °F 32.0 °F 81% 29.74 in 10.0 mi SSE 5.8 mph - N/A   Clear
10:15 AM 41.0 °F 36.4 °F 32.0 °F 70% 29.74 in 10.0 mi SE 6.9 mph - N/A   Clear
10:35 AM 42.8 °F 38.6 °F 32.0 °F 66% 29.73 in 10.0 mi SE 6.9 mph - N/A   Clear
10:55 AM 42.8 °F 38.0 °F 32.0 °F 66% 29.72 in 10.0 mi SSE 8.1 mph - N/A   Clear
11:15 AM 44.6 °F 39.2 °F 32.0 °F 61% 29.72 in 10.0 mi SSE 10.4 mph - N/A   Clear
11:35 AM 46.4 °F 41.5 °F 32.0 °F 57% 29.70 in 10.0 mi SSE 10.4 mph - N/A   Clear
11:55 AM 50.0 °F - 30.2 °F 47% 29.69 in 10.0 mi SE 16.1 mph 24.2 mph N/A   Clear
12:15 PM 51.8 °F - 30.2 °F 44% 29.68 in 10.0 mi SE 19.6 mph 24.2 mph N/A   Clear
12:35 PM 51.8 °F - 30.2 °F 44% 29.66 in 10.0 mi SE 16.1 mph - N/A   Clear
12:55 PM 51.8 °F - 30.2 °F 44% 29.65 in 10.0 mi ESE 17.3 mph 21.9 mph N/A   Clear
1:15 PM 55.4 °F - 30.2 °F 38% 29.63 in 10.0 mi ESE 20.7 mph 25.3 mph N/A   Clear
1:35 PM 55.4 °F - 28.4 °F 36% 29.62 in 10.0 mi SE 20.7 mph 26.5 mph N/A   Clear
1:55 PM 55.4 °F - 26.6 °F 33% 29.60 in 10.0 mi SE 17.3 mph - N/A   Clear
2:15 PM 55.4 °F - 26.6 °F 33% 29.59 in 10.0 mi SE 17.3 mph 26.5 mph N/A   Clear
2:35 PM 55.4 °F - 26.6 °F 33% 29.57 in 10.0 mi SE 19.6 mph 23.0 mph N/A   Clear
2:55 PM 55.4 °F - 26.6 °F 33% 29.56 in 10.0 mi SE 18.4 mph - N/A   Clear
3:15 PM 55.4 °F - 26.6 °F 33% 29.55 in 10.0 mi SE 17.3 mph 24.2 mph N/A   Clear
3:35 PM 55.4 °F - 26.6 °F 33% 29.53 in 10.0 mi ESE 20.7 mph 24.2 mph N/A   Clear
3:55 PM 55.4 °F - 26.6 °F 33% 29.53 in 10.0 mi SE 18.4 mph 24.2 mph N/A   Clear
4:15 PM 55.4 °F - 26.6 °F 33% 29.53 in 10.0 mi SE 18.4 mph 23.0 mph N/A   Clear
4:35 PM 55.4 °F - 28.4 °F 36% 29.52 in 10.0 mi SE 15.0 mph - N/A   Clear
4:55 PM 57.2 °F - 28.4 °F 33% 29.51 in 10.0 mi ESE 16.1 mph 19.6 mph N/A   Clear
5:15 PM 55.4 °F - 28.4 °F 36% 29.51 in 10.0 mi ESE 15.0 mph 20.7 mph N/A   Clear
5:35 PM 53.6 °F - 28.4 °F 38% 29.49 in 10.0 mi ESE 12.7 mph 17.3 mph N/A   Clear
5:55 PM 55.4 °F - 28.4 °F 36% 29.49 in 10.0 mi SE 10.4 mph 16.1 mph N/A   Clear
6:15 PM 53.6 °F - 28.4 °F 38% 29.49 in 10.0 mi SE 9.2 mph - N/A   Clear
6:35 PM 51.8 °F - 30.2 °F 44% 29.52 in 10.0 mi South 10.4 mph - N/A   Scattered Clouds
6:55 PM 53.6 °F - 30.2 °F 41% 29.50 in 10.0 mi SE 9.2 mph 26.5 mph N/A   Clear
7:15 PM 51.8 °F - 30.2 °F 44% 29.51 in 10.0 mi SSE 10.4 mph - N/A   Scattered Clouds
7:35 PM 53.6 °F - 32.0 °F 44% 29.52 in 10.0 mi South 6.9 mph - N/A   Scattered Clouds
7:55 PM 51.8 °F - 32.0 °F 47% 29.52 in 10.0 mi South 3.5 mph - N/A   Scattered Clouds
8:15 PM 51.8 °F - 32.0 °F 47% 29.53 in 10.0 mi SW 10.4 mph - N/A   Mostly Cloudy
8:35 PM 48.2 °F - 37.4 °F 66% 29.56 in 7.0 mi WSW 9.2 mph 26.5 mph N/A Rain Rain
8:55 PM 44.6 °F 40.2 °F 39.2 °F 81% 29.55 in 10.0 mi SSW 8.1 mph - 0.02 in Rain Rain
9:15 PM 42.8 °F - 41.0 °F 93% 29.52 in 10.0 mi North - - N/A   Scattered Clouds
9:35 PM 42.8 °F - 41.0 °F 93% 29.52 in 10.0 mi North - - N/A   Clear
9:55 PM 42.8 °F 40.1 °F 39.2 °F 87% 29.51 in 10.0 mi North 4.6 mph - N/A   Clear
10:15 PM 42.8 °F 38.6 °F 39.2 °F 87% 29.50 in 10.0 mi ENE 6.9 mph - N/A   Scattered Clouds
10:35 PM 42.8 °F - 39.2 °F 87% 29.50 in 10.0 mi Calm Calm - N/A   Scattered Clouds
10:55 PM 41.0 °F 34.7 °F 39.2 °F 93% 29.50 in 10.0 mi NNW 10.4 mph - N/A   Clear
11:15 PM 41.0 °F 35.8 °F 39.2 °F 93% 29.52 in 10.0 mi NW 8.1 mph - N/A   Mostly Cloudy
11:35 PM 39.2 °F 30.8 °F 37.4 °F 93% 29.52 in 10.0 mi NW 15.0 mph 20.7 mph N/A   Overcast
11:55 PM 37.4 °F 28.2 °F 35.6 °F 93% 29.52 in 10.0 mi NW 16.1 mph 23.0 mph N/A   Overcast